QPF
0.00 0.00 0.00 0.00 0.00 0.00 0.00 0.00 0.00 0.00 0.01 0.01 0.01 0.00 0.00 0.00 0.00 0.00 0.00 0.00 0.01 0.02 0.02 0.03 0.04 0.05 0.03 0.01 0.00 0.00 0.00 0.00 0.00 0.00 0.00 0.00 0.00 0.00 0.00 0.00 0.00 0.00 0.00
0.00 0.00 0.00 0.00 0.00 0.00 0.00 0.00 0.00 0.00 0.00 0.01 0.01 0.00 0.00 0.00 0.00 0.00 0.00 0.01 0.01 0.02 0.03 0.03 0.04 0.04 0.02 0.01 0.00 0.00 0.00 0.00 0.00 0.00 0.00 0.00 0.00 0.00 0.00 0.00 0.00 0.00 0.00
0.00 0.00 0.00 0.00 0.00 0.00 0.00 0.00 0.00 0.00 0.00 0.01 0.00 0.00 0.00 0.00 0.00 0.00 0.00 0.01 0.01 0.01 0.02 0.02 0.03 0.01 0.01 0.00 0.00 0.00 0.00 0.00 0.00 0.00 0.00 0.00 0.00 0.00 0.00 0.00 0.00 0.00 0.00
0.00 0.00 0.00 0.00 0.00 0.00 0.00 0.00 0.00 0.00 0.00 0.01 0.00 0.00 0.00 0.00 0.00 0.00 0.00 0.00 0.00 0.00 0.01 0.01 0.00 0.00 0.00 0.00 0.00 0.00 0.00 0.00 0.00 0.00 0.00 0.00 0.00 0.00 0.00 0.00 0.00 0.00 0.00
0.00 0.00 0.00 0.00 0.00 0.00 0.00 0.00 0.00 0.00 0.00 0.01 0.00 0.00 0.00 0.00 0.00 0.00 0.00 0.00 0.00 0.00 0.00 0.00 0.00 0.00 0.00 0.00 0.00 0.00 0.00 0.00 0.00 0.00 0.00 0.00 0.00 0.00 0.00 0.00 0.00 0.00 0.00
0.00 0.00 0.00 0.00 0.00 0.00 0.00 0.00 0.00 0.00 0.00 0.00 0.00 0.00 0.00 0.00 0.00 0.00 0.00 0.00 0.00 0.00 0.00 0.00 0.00 0.00 0.00 0.00 0.00 0.00 0.00 0.00 0.00 0.00 0.00 0.00 0.00 0.00 0.00 0.01 0.01 0.01 0.01
0.00 0.00 0.00 0.00 0.00 0.00 0.00 0.00 0.00 0.00 0.00 0.00 0.00 0.00 0.00 0.00 0.00 0.00 0.00 0.00 0.00 0.00 0.00 0.00 0.00 0.00 0.00 0.00 0.00 0.00 0.00 0.00 0.00 0.00 0.00 0.00 0.00 0.00 0.01 0.01 0.02 0.02 0.02
0.00 0.00 0.00 0.00 0.00 0.00 0.00 0.00 0.00 0.00 0.00 0.00 0.00 0.00 0.00 0.00 0.00 0.00 0.00 0.00 0.00 0.00 0.00 0.00 0.00 0.00 0.00 0.00 0.00 0.00 0.00 0.00 0.00 0.00 0.00 0.00 0.00 0.00 0.00 0.01 0.01 0.01 0.02
0.00 0.00 0.00 0.00 0.00 0.00 0.00 0.00 0.00 0.00 0.00 0.00 0.00 0.00 0.00 0.00 0.00 0.00 0.00 0.00 0.00 0.00 0.00 0.00 0.00 0.00 0.00 0.00 0.00 0.00 0.00 0.00 0.00 0.00 0.00 0.00 0.00 0.00 0.00 0.00 0.01 0.01 0.01
0.00 0.00 0.00 0.00 0.00 0.00 0.00 0.00 0.00 0.00 0.00 0.00 0.00 0.00 0.00 0.00 0.00 0.00 0.00 0.00 0.00 0.00 0.00 0.00 0.00 0.00 0.00 0.00 0.00 0.00 0.00 0.00 0.00 0.00 0.00 0.00 0.00 0.00 0.00 0.00 0.00 0.01 0.00
0.01 0.00 0.00 0.00 0.00 0.00 0.00 0.00 0.00 0.00 0.00 0.00 0.00 0.00 0.00 0.00 0.00 0.00 0.00 0.00 0.00 0.00 0.00 0.00 0.00 0.00 0.00 0.00 0.00 0.00 0.00 0.00 0.00 0.00 0.00 0.00 0.00 0.00 0.00 0.00 0.00 0.00 0.00
0.01 0.01 0.00 0.00 0.00 0.00 0.00 0.00 0.00 0.00 0.00 0.00 0.00 0.00 0.00 0.00 0.00 0.00 0.00 0.00 0.00 0.00 0.00 0.00 0.00 0.00 0.00 0.00 0.00 0.00 0.00 0.00 0.00 0.00 0.00 0.00 0.00 0.00 0.00 0.00 0.00 0.00 0.00
0.01 0.00 0.00 0.00 0.00 0.00 0.00 0.00 0.00 0.00 0.00 0.00 0.00 0.00 0.00 0.00 0.00 0.00 0.00 0.00 0.00 0.00 0.00 0.00 0.00 0.00 0.00 0.00 0.00 0.00 0.00 0.00 0.00 0.00 0.00 0.00 0.00 0.00 0.00 0.00 0.00 0.00 0.00
0.00 0.00 0.00 0.00 0.00 0.00 0.00 0.00 0.00 0.00 0.00 0.00 0.00 0.00 0.00 0.00 0.00 0.00 0.00 0.00 0.00 0.00 0.00 0.00 0.00 0.00 0.00 0.00 0.00 0.00 0.00 0.00 0.00 0.00 0.00 0.00 0.00 0.00 0.00 0.00 0.00 0.00 0.00
0.00 0.00 0.00 0.00 0.00 0.00 0.00 0.00 0.00 0.00 0.00 0.00 0.00 0.00 0.00 0.00 0.00 0.00 0.00 0.00 0.00 0.00 0.00 0.00 0.00 0.00 0.00 0.00 0.00 0.00 0.00 0.00 0.00 0.00 0.00 0.00 0.00 0.00 0.00 0.00 0.00 0.00 0.00
0.00 0.01 0.01 0.01 0.00 0.00 0.00 0.00 0.00 0.00 0.00 0.00 0.00 0.00 0.00 0.00 0.00 0.00 0.00 0.00 0.00 0.00 0.00 0.00 0.00 0.00 0.00 0.00 0.00 0.00 0.00 0.00 0.00 0.00 0.00 0.00 0.00 0.00 0.00 0.00 0.00 0.00 0.00
0.00 0.00 0.00 0.01 0.02 0.01 0.00 0.00 0.00 0.00 0.00 0.00 0.00 0.00 0.00 0.00 0.00 0.00 0.00 0.00 0.00 0.00 0.00 0.00 0.00 0.00 0.00 0.00 0.00 0.00 0.00 0.00 0.00 0.00 0.00 0.00 0.00 0.00 0.00 0.00 0.00 0.00 0.00
0.00 0.00 0.00 0.01 0.02 0.01 0.01 0.00 0.00 0.00 0.00 0.00 0.00 0.00 0.00 0.00 0.00 0.00 0.00 0.00 0.00 0.00 0.00 0.00 0.00 0.00 0.00 0.00 0.00 0.00 0.00 0.00 0.00 0.00 0.00 0.00 0.00 0.00 0.00 0.00 0.00 0.00 0.00
0.00 0.00 0.00 0.01 0.01 0.02 0.02 0.02 0.02 0.01 0.01 0.01 0.00 0.00 0.00 0.00 0.00 0.00 0.00 0.00 0.00 0.00 0.00 0.00 0.00 0.00 0.00 0.00 0.00 0.00 0.00 0.00 0.00 0.00 0.00 0.00 0.00 0.00 0.00 0.00 0.00 0.00 0.00
0.00 0.00 0.00 0.00 0.01 0.03 0.06 0.07 0.06 0.04 0.03 0.02 0.01 0.01 0.01 0.00 0.00 0.00 0.00 0.00 0.00 0.00 0.00 0.00 0.00 0.00 0.00 0.00 0.00 0.00 0.00 0.00 0.00 0.00 0.00 0.00 0.00 0.00 0.00 0.00 0.00 0.00 0.00
0.00 0.00 0.00 0.00 0.00 0.03 0.05 0.05 0.04 0.03 0.03 0.03 0.03 0.02 0.03 0.02 0.01 0.01 0.01 0.01 0.00 0.00 0.00 0.00 0.00 0.00 0.00 0.00 0.00 0.00 0.00 0.00 0.00 0.00 0.00 0.00 0.00 0.00 0.00 0.00 0.00 0.00 0.00
0.00 0.00 0.00 0.00 0.00 0.01 0.02 0.02 0.05 0.08 0.09 0.09 0.08 0.06 0.05 0.05 0.03 0.02 0.01 0.01 0.01 0.01 0.00 0.00 0.00 0.00 0.00 0.00 0.00 0.00 0.00 0.00 0.00 0.00 0.00 0.00 0.00 0.00 0.00 0.00 0.00 0.00 0.00
0.00 0.00 0.00 0.00 0.00 0.01 0.02 0.05 0.07 0.08 0.08 0.08 0.05 0.04 0.06 0.08 0.07 0.05 0.03 0.02 0.02 0.01 0.01 0.00 0.00 0.00 0.00 0.00 0.00 0.00 0.00 0.00 0.00 0.00 0.00 0.00 0.00 0.00 0.00 0.00 0.00 0.00 0.00
0.00 0.00 0.00 0.00 0.00 0.00 0.01 0.02 0.02 0.02 0.02 0.03 0.05 0.08 0.09 0.09 0.09 0.08 0.07 0.04 0.03 0.02 0.01 0.01 0.00 0.00 0.00 0.00 0.00 0.00 0.00 0.00 0.00 0.00 0.00 0.00 0.00 0.00 0.00 0.00 0.00 0.00 0.00
0.00 0.00 0.00 0.00 0.00 0.00 0.00 0.01 0.02 0.02 0.02 0.03 0.05 0.07 0.07 0.08 0.09 0.09 0.08 0.07 0.05 0.04 0.03 0.02 0.01 0.01 0.00 0.00 0.00 0.00 0.00 0.00 0.00 0.00 0.00 0.00 0.00 0.00 0.00 0.00 0.00 0.00 0.00
0.00 0.00 0.00 0.00 0.00 0.00 0.00 0.00 0.01 0.01 0.01 0.02 0.03 0.04 0.05 0.06 0.07 0.07 0.08 0.08 0.07 0.06 0.05 0.03 0.02 0.01 0.01 0.01 0.00 0.00 0.00 0.00 0.00 0.00 0.00 0.00 0.00 0.00 0.00 0.00 0.00 0.00 0.00
MSLP
1013.33 1013.06 1012.92 1012.94 1013.11 1013.39 1013.72 1014.05 1014.33 1014.55 1014.72 1014.85 1015.01 1015.19 1015.42 1015.68 1015.92 1016.12 1016.24 1016.29 1016.27 1016.23 1016.22 1016.26 1016.38 1016.57 1016.81 1017.05 1017.25 1017.40 1017.47 1017.49 1017.48 1017.46 1017.48 1017.53 1017.61 1017.70 1017.77 1017.81 1017.80 1017.76 1017.69
1013.09 1012.90 1012.83 1012.91 1013.13 1013.45 1013.81 1014.15 1014.45 1014.67 1014.85 1015.01 1015.18 1015.40 1015.65 1015.93 1016.18 1016.39 1016.51 1016.55 1016.53 1016.48 1016.45 1016.49 1016.59 1016.77 1016.99 1017.21 1017.40 1017.54 1017.60 1017.62 1017.61 1017.61 1017.63 1017.68 1017.75 1017.83 1017.88 1017.90 1017.87 1017.81 1017.74
1012.78 1012.69 1012.69 1012.85 1013.12 1013.49 1013.89 1014.26 1014.58 1014.82 1015.02 1015.20 1015.39 1015.63 1015.90 1016.19 1016.45 1016.66 1016.78 1016.82 1016.79 1016.73 1016.70 1016.71 1016.80 1016.95 1017.15 1017.35 1017.52 1017.64 1017.71 1017.73 1017.74 1017.75 1017.78 1017.83 1017.90 1017.96 1017.99 1017.99 1017.94 1017.87 1017.79
1012.48 1012.47 1012.57 1012.79 1013.13 1013.55 1013.98 1014.38 1014.72 1014.98 1015.19 1015.38 1015.60 1015.84 1016.13 1016.42 1016.69 1016.90 1017.02 1017.06 1017.03 1016.98 1016.94 1016.94 1017.01 1017.14 1017.31 1017.48 1017.63 1017.74 1017.80 1017.84 1017.86 1017.88 1017.92 1017.98 1018.04 1018.08 1018.10 1018.07 1018.01 1017.92 1017.84
1012.25 1012.32 1012.50 1012.79 1013.19 1013.64 1014.10 1014.51 1014.85 1015.12 1015.33 1015.53 1015.75 1016.01 1016.30 1016.59 1016.87 1017.08 1017.21 1017.26 1017.25 1017.21 1017.17 1017.18 1017.24 1017.35 1017.48 1017.63 1017.75 1017.85 1017.91 1017.94 1017.98 1018.01 1018.06 1018.12 1018.16 1018.19 1018.18 1018.14 1018.07 1017.98 1017.90
1012.14 1012.29 1012.54 1012.89 1013.32 1013.79 1014.25 1014.65 1014.98 1015.23 1015.43 1015.63 1015.85 1016.11 1016.40 1016.70 1016.98 1017.21 1017.36 1017.43 1017.44 1017.42 1017.40 1017.42 1017.47 1017.57 1017.69 1017.80 1017.90 1017.98 1018.03 1018.06 1018.09 1018.13 1018.18 1018.23 1018.26 1018.28 1018.25 1018.20 1018.13 1018.05 1017.99
1012.17 1012.39 1012.70 1013.09 1013.54 1014.00 1014.43 1014.79 1015.08 1015.30 1015.49 1015.67 1015.89 1016.15 1016.45 1016.76 1017.05 1017.29 1017.46 1017.55 1017.60 1017.61 1017.62 1017.66 1017.72 1017.81 1017.91 1018.00 1018.08 1018.13 1018.16 1018.18 1018.20 1018.24 1018.27 1018.31 1018.34 1018.34 1018.31 1018.26 1018.20 1018.14 1018.10
1012.31 1012.59 1012.94 1013.35 1013.79 1014.23 1014.62 1014.93 1015.17 1015.35 1015.51 1015.68 1015.90 1016.17 1016.47 1016.79 1017.09 1017.35 1017.53 1017.65 1017.73 1017.77 1017.81 1017.87 1017.95 1018.04 1018.13 1018.21 1018.26 1018.29 1018.30 1018.31 1018.31 1018.33 1018.36 1018.39 1018.41 1018.41 1018.38 1018.34 1018.30 1018.26 1018.26
1012.49 1012.82 1013.20 1013.62 1014.05 1014.45 1014.78 1015.04 1015.23 1015.37 1015.52 1015.69 1015.92 1016.20 1016.51 1016.84 1017.15 1017.40 1017.60 1017.73 1017.82 1017.89 1017.96 1018.04 1018.14 1018.24 1018.33 1018.40 1018.45 1018.46 1018.45 1018.44 1018.43 1018.44 1018.46 1018.48 1018.50 1018.50 1018.49 1018.47 1018.45 1018.45 1018.47
1012.64 1013.00 1013.41 1013.83 1014.24 1014.59 1014.88 1015.09 1015.25 1015.38 1015.52 1015.71 1015.95 1016.26 1016.59 1016.92 1017.22 1017.47 1017.65 1017.78 1017.88 1017.96 1018.05 1018.15 1018.27 1018.39 1018.50 1018.57 1018.61 1018.62 1018.61 1018.59 1018.57 1018.57 1018.59 1018.61 1018.64 1018.66 1018.67 1018.67 1018.68 1018.71 1018.75
1012.69 1013.07 1013.49 1013.91 1014.30 1014.62 1014.88 1015.06 1015.21 1015.35 1015.51 1015.73 1016.01 1016.34 1016.69 1017.02 1017.31 1017.54 1017.70 1017.81 1017.90 1017.98 1018.08 1018.20 1018.35 1018.49 1018.62 1018.71 1018.77 1018.79 1018.78 1018.76 1018.74 1018.75 1018.77 1018.81 1018.86 1018.90 1018.93 1018.96 1018.99 1019.04 1019.10
1012.58 1012.97 1013.40 1013.82 1014.19 1014.50 1014.74 1014.92 1015.08 1015.25 1015.47 1015.74 1016.06 1016.43 1016.79 1017.12 1017.39 1017.59 1017.73 1017.81 1017.88 1017.96 1018.07 1018.21 1018.38 1018.55 1018.71 1018.84 1018.92 1018.96 1018.96 1018.96 1018.96 1018.98 1019.02 1019.08 1019.15 1019.22 1019.28 1019.33 1019.38 1019.43 1019.48
1012.32 1012.71 1013.12 1013.53 1013.89 1014.20 1014.44 1014.65 1014.85 1015.07 1015.35 1015.68 1016.06 1016.45 1016.84 1017.17 1017.42 1017.60 1017.71 1017.77 1017.83 1017.91 1018.03 1018.19 1018.39 1018.60 1018.80 1018.96 1019.07 1019.14 1019.18 1019.19 1019.22 1019.26 1019.32 1019.41 1019.50 1019.60 1019.69 1019.76 1019.82 1019.86 1019.90
1011.92 1012.29 1012.68 1013.08 1013.43 1013.74 1014.00 1014.24 1014.49 1014.78 1015.12 1015.51 1015.94 1016.37 1016.77 1017.11 1017.36 1017.53 1017.63 1017.69 1017.76 1017.85 1018.00 1018.20 1018.43 1018.68 1018.92 1019.11 1019.26 1019.35 1019.41 1019.46 1019.50 1019.56 1019.65 1019.76 1019.89 1020.01 1020.12 1020.20 1020.26 1020.29 1020.30
1011.44 1011.76 1012.13 1012.49 1012.84 1013.15 1013.43 1013.72 1014.02 1014.36 1014.76 1015.21 1015.67 1016.14 1016.55 1016.90 1017.17 1017.35 1017.47 1017.57 1017.67 1017.81 1018.01 1018.25 1018.53 1018.81 1019.08 1019.30 1019.47 1019.59 1019.67 1019.73 1019.79 1019.87 1019.98 1020.11 1020.25 1020.40 1020.52 1020.62 1020.67 1020.69 1020.66
1010.91 1011.19 1011.50 1011.84 1012.16 1012.47 1012.78 1013.10 1013.44 1013.83 1014.27 1014.75 1015.25 1015.72 1016.16 1016.53 1016.82 1017.05 1017.23 1017.40 1017.58 1017.80 1018.06 1018.36 1018.69 1019.01 1019.30 1019.54 1019.72 1019.85 1019.93 1020.00 1020.07 1020.15 1020.27 1020.41 1020.56 1020.72 1020.85 1020.95 1021.01 1021.01 1020.96
1010.39 1010.60 1010.87 1011.16 1011.46 1011.76 1012.08 1012.43 1012.80 1013.22 1013.68 1014.17 1014.67 1015.16 1015.61 1016.00 1016.35 1016.65 1016.92 1017.19 1017.47 1017.79 1018.14 1018.51 1018.89 1019.24 1019.55 1019.80 1019.98 1020.10 1020.18 1020.24 1020.31 1020.39 1020.50 1020.64 1020.80 1020.95 1021.09 1021.19 1021.25 1021.24 1021.18
1009.89 1010.04 1010.24 1010.49 1010.76 1011.06 1011.39 1011.75 1012.14 1012.57 1013.04 1013.52 1014.01 1014.49 1014.94 1015.37 1015.77 1016.16 1016.54 1016.93 1017.34 1017.77 1018.22 1018.67 1019.10 1019.48 1019.80 1020.04 1020.21 1020.32 1020.39 1020.45 1020.50 1020.58 1020.68 1020.81 1020.96 1021.11 1021.24 1021.34 1021.40 1021.40 1021.33
1009.41 1009.50 1009.64 1009.84 1010.08 1010.37 1010.71 1011.08 1011.49 1011.92 1012.38 1012.84 1013.31 1013.77 1014.23 1014.69 1015.15 1015.62 1016.11 1016.63 1017.16 1017.72 1018.26 1018.78 1019.25 1019.66 1019.98 1020.22 1020.39 1020.50 1020.56 1020.61 1020.66 1020.72 1020.82 1020.93 1021.07 1021.20 1021.33 1021.43 1021.48 1021.48 1021.43
1008.93 1008.96 1009.05 1009.20 1009.42 1009.70 1010.05 1010.44 1010.86 1011.30 1011.75 1012.20 1012.64 1013.09 1013.54 1014.01 1014.52 1015.07 1015.66 1016.28 1016.93 1017.58 1018.21 1018.79 1019.30 1019.73 1020.07 1020.31 1020.49 1020.60 1020.67 1020.73 1020.78 1020.85 1020.94 1021.05 1021.16 1021.28 1021.39 1021.48 1021.53 1021.54 1021.49
1008.46 1008.43 1008.46 1008.56 1008.76 1009.04 1009.40 1009.82 1010.27 1010.73 1011.18 1011.62 1012.05 1012.48 1012.92 1013.41 1013.94 1014.54 1015.20 1015.90 1016.63 1017.35 1018.04 1018.67 1019.22 1019.67 1020.02 1020.29 1020.48 1020.62 1020.73 1020.82 1020.90 1020.99 1021.08 1021.18 1021.29 1021.39 1021.48 1021.54 1021.58 1021.59 1021.55
1007.97 1007.88 1007.85 1007.92 1008.09 1008.37 1008.76 1009.21 1009.70 1010.20 1010.68 1011.13 1011.56 1011.98 1012.42 1012.91 1013.46 1014.08 1014.77 1015.52 1016.29 1017.05 1017.77 1018.42 1018.99 1019.46 1019.84 1020.15 1020.39 1020.58 1020.75 1020.89 1021.02 1021.15 1021.26 1021.37 1021.46 1021.54 1021.61 1021.65 1021.67 1021.65 1021.60
1007.49 1007.34 1007.25 1007.27 1007.41 1007.70 1008.11 1008.60 1009.14 1009.70 1010.22 1010.71 1011.16 1011.60 1012.04 1012.53 1013.08 1013.70 1014.40 1015.14 1015.92 1016.68 1017.41 1018.06 1018.65 1019.14 1019.56 1019.92 1020.23 1020.50 1020.74 1020.96 1021.16 1021.33 1021.48 1021.60 1021.69 1021.75 1021.79 1021.81 1021.79 1021.75 1021.68
1007.05 1006.83 1006.67 1006.63 1006.75 1007.02 1007.45 1007.99 1008.59 1009.21 1009.80 1010.34 1010.84 1011.31 1011.77 1012.26 1012.81 1013.42 1014.10 1014.82 1015.57 1016.31 1017.02 1017.67 1018.26 1018.78 1019.24 1019.66 1020.04 1020.40 1020.73 1021.03 1021.30 1021.53 1021.72 1021.86 1021.96 1022.01 1022.02 1022.00 1021.95 1021.88 1021.77
1006.67 1006.38 1006.15 1006.05 1006.12 1006.38 1006.81 1007.38 1008.04 1008.72 1009.38 1009.99 1010.55 1011.07 1011.57 1012.08 1012.63 1013.23 1013.88 1014.57 1015.28 1015.99 1016.67 1017.31 1017.90 1018.44 1018.94 1019.42 1019.87 1020.31 1020.72 1021.10 1021.44 1021.73 1021.95 1022.12 1022.22 1022.26 1022.26 1022.21 1022.13 1022.01 1021.87
1006.38 1006.03 1005.73 1005.56 1005.58 1005.81 1006.23 1006.82 1007.51 1008.24 1008.96 1009.65 1010.28 1010.85 1011.40 1011.95 1012.51 1013.11 1013.74 1014.41 1015.09 1015.76 1016.42 1017.04 1017.63 1018.19 1018.73 1019.25 1019.76 1020.25 1020.72 1021.16 1021.55 1021.88 1022.13 1022.32 1022.43 1022.47 1022.46 1022.39 1022.29 1022.14 1021.95
Thickness
5759 5761 5760 5758 5757 5756 5754 5753 5751 5749 5748 5746 5744 5742 5741 5739 5738 5737 5736 5736 5736 5736 5735 5733 5732 5730 5728 5727 5725 5724 5723 5721 5720 5718 5717 5717 5716 5715 5714 5712 5711 5711 5710
5761 5759 5757 5755 5754 5752 5750 5748 5747 5745 5743 5741 5740 5738 5736 5735 5734 5734 5733 5733 5732 5732 5731 5730 5728 5726 5724 5723 5721 5720 5719 5717 5715 5714 5713 5712 5711 5710 5709 5708 5707 5707 5706
5759 5756 5754 5752 5750 5748 5746 5744 5742 5740 5739 5737 5735 5733 5732 5730 5730 5729 5729 5728 5727 5727 5726 5724 5723 5721 5719 5718 5717 5716 5714 5713 5711 5710 5709 5708 5707 5706 5705 5704 5703 5703 5702
5757 5753 5750 5748 5747 5744 5742 5740 5738 5737 5735 5733 5731 5729 5727 5726 5725 5724 5723 5722 5721 5720 5719 5718 5717 5715 5714 5713 5712 5711 5710 5708 5707 5706 5705 5704 5703 5702 5701 5700 5700 5699 5698
5753 5749 5746 5745 5743 5741 5739 5737 5735 5733 5731 5729 5726 5724 5722 5721 5719 5718 5717 5716 5715 5714 5713 5712 5710 5709 5708 5707 5707 5706 5705 5704 5703 5702 5701 5699 5698 5697 5697 5696 5695 5695 5694
5748 5745 5742 5741 5739 5737 5735 5733 5732 5730 5728 5725 5722 5720 5718 5716 5714 5713 5711 5710 5709 5708 5707 5706 5705 5704 5703 5702 5702 5701 5700 5700 5699 5698 5696 5694 5693 5693 5692 5692 5691 5690 5690
5744 5741 5738 5736 5735 5733 5732 5730 5729 5726 5724 5721 5718 5716 5713 5711 5709 5707 5705 5704 5703 5702 5701 5700 5699 5698 5697 5697 5697 5696 5695 5695 5694 5693 5691 5690 5689 5689 5688 5687 5686 5685 5685
5741 5737 5734 5732 5730 5729 5728 5727 5725 5723 5720 5717 5714 5712 5709 5707 5704 5702 5700 5699 5698 5697 5696 5695 5694 5693 5693 5692 5692 5691 5690 5689 5688 5687 5686 5685 5685 5684 5682 5681 5679 5679 5678
5736 5733 5730 5727 5726 5724 5723 5722 5721 5719 5716 5714 5711 5708 5705 5703 5700 5697 5695 5694 5693 5692 5691 5690 5689 5688 5688 5687 5687 5686 5686 5685 5684 5682 5680 5680 5679 5678 5676 5674 5672 5671 5670
5729 5728 5725 5723 5721 5719 5718 5717 5715 5714 5712 5710 5707 5704 5701 5699 5696 5693 5691 5689 5688 5687 5686 5685 5684 5683 5683 5682 5682 5681 5681 5680 5679 5676 5675 5674 5673 5671 5669 5667 5665 5663 5661
5721 5721 5720 5719 5717 5715 5713 5711 5710 5708 5707 5705 5703 5700 5698 5695 5693 5690 5688 5686 5684 5682 5681 5680 5679 5678 5677 5677 5676 5676 5675 5674 5672 5670 5669 5668 5667 5664 5661 5659 5657 5655 5653
5716 5715 5716 5715 5713 5711 5709 5707 5705 5703 5702 5700 5698 5696 5694 5692 5689 5687 5684 5682 5680 5679 5677 5675 5674 5673 5672 5671 5671 5670 5669 5667 5665 5664 5663 5662 5660 5657 5654 5651 5649 5647 5645
5716 5714 5713 5712 5710 5708 5706 5703 5701 5699 5697 5696 5694 5692 5690 5688 5685 5683 5681 5679 5677 5675 5673 5671 5669 5668 5666 5665 5664 5663 5662 5660 5658 5657 5656 5654 5652 5649 5646 5643 5640 5638 5637
5713 5713 5713 5711 5708 5706 5703 5700 5698 5695 5693 5691 5690 5688 5686 5683 5681 5679 5677 5675 5673 5671 5669 5666 5664 5662 5660 5658 5657 5656 5654 5652 5650 5649 5647 5646 5643 5640 5637 5634 5632 5630 5628
5712 5712 5712 5710 5707 5705 5701 5699 5696 5693 5691 5689 5687 5685 5682 5680 5677 5675 5673 5671 5669 5666 5664 5661 5658 5656 5654 5652 5650 5648 5646 5643 5641 5640 5638 5636 5634 5631 5628 5625 5623 5621 5620
5707 5709 5710 5709 5707 5704 5701 5698 5696 5692 5690 5687 5685 5683 5680 5678 5675 5672 5669 5667 5664 5662 5659 5656 5652 5649 5647 5644 5642 5640 5637 5635 5632 5630 5628 5626 5623 5621 5618 5616 5614 5612 5611
5705 5707 5707 5708 5706 5703 5701 5698 5696 5692 5689 5686 5684 5681 5678 5675 5672 5669 5666 5663 5660 5657 5653 5649 5645 5642 5639 5636 5633 5631 5629 5626 5623 5621 5619 5616 5613 5611 5608 5606 5604 5603 5601
5703 5704 5705 5705 5703 5702 5700 5697 5695 5692 5688 5686 5682 5679 5677 5673 5670 5666 5662 5658 5655 5652 5648 5643 5639 5634 5630 5627 5624 5622 5620 5617 5614 5612 5609 5606 5604 5601 5599 5596 5594 5593 5591
5701 5701 5701 5701 5701 5700 5698 5695 5693 5690 5688 5685 5681 5678 5675 5671 5667 5662 5658 5654 5650 5645 5641 5637 5631 5627 5622 5618 5616 5613 5611 5608 5605 5602 5599 5597 5594 5592 5589 5586 5584 5583 5581
5698 5698 5698 5698 5698 5697 5694 5690 5687 5686 5685 5683 5680 5676 5673 5668 5664 5658 5653 5648 5644 5639 5634 5630 5624 5619 5614 5610 5608 5604 5601 5599 5596 5593 5590 5587 5584 5582 5579 5577 5574 5572 5571
5692 5692 5693 5693 5694 5692 5688 5685 5682 5680 5680 5678 5677 5674 5669 5665 5660 5654 5648 5643 5639 5634 5629 5623 5617 5611 5605 5602 5598 5594 5591 5589 5587 5584 5581 5578 5575 5572 5570 5567 5564 5562 5560
5684 5686 5687 5688 5690 5690 5689 5687 5685 5681 5676 5675 5673 5670 5666 5661 5656 5650 5645 5639 5634 5628 5622 5617 5612 5604 5598 5594 5591 5586 5583 5579 5577 5575 5571 5568 5565 5562 5559 5556 5553 5550 5549
5677 5679 5682 5683 5684 5685 5684 5681 5675 5668 5664 5662 5662 5662 5660 5656 5651 5646 5641 5635 5629 5625 5618 5613 5608 5601 5592 5586 5584 5581 5576 5574 5567 5564 5561 5558 5555 5551 5548 5544 5541 5539 5537
5671 5673 5675 5676 5677 5678 5677 5673 5669 5666 5662 5661 5659 5656 5651 5648 5644 5640 5635 5630 5625 5619 5613 5608 5602 5596 5590 5581 5576 5572 5568 5565 5560 5556 5551 5547 5544 5540 5537 5533 5530 5527 5526
5663 5664 5665 5666 5667 5668 5668 5668 5665 5663 5660 5653 5649 5645 5641 5638 5635 5632 5627 5623 5618 5613 5607 5601 5595 5589 5585 5578 5571 5565 5559 5553 5548 5545 5541 5535 5532 5529 5525 5522 5518 5515 5513
5651 5652 5653 5654 5656 5657 5657 5658 5657 5655 5648 5641 5637 5633 5629 5625 5623 5621 5618 5614 5609 5604 5599 5593 5587 5581 5576 5570 5563 5558 5552 5545 5539 5533 5528 5522 5517 5515 5513 5509 5505 5502 5499